TEXX · Horizon Kinetics Texas ETF ETF
$30.68
-0.06 (-0.20%)
At close · Sep 4
Weekly off-exchange (dark pool / OTC) trading volume reported to FINRA under its OTC/ATS Transparency data. ATS volume is executed on alternating trading systems (dark pools); non-ATS OTC is other over-the-counter dealer volume. The off-exchange share is total off-exchange volume as a percentage of consolidated weekly trading volume for the same Monday–Friday week.
Off-Exchange Volume History
| Week Start | ATS Volume | Non-ATS OTC Volume | Total Off-Exchange | % of FINRA Weekly Volume |
|---|---|---|---|---|
| 2026-07-27 | 400 | 575 | 975 | 40.6% |
| 2026-07-20 | 200 | 3,184 | 3,384 | 89.1% |
| 2026-07-13 | 1 | 413 | 414 | 21.8% |
| 2026-07-06 | 300 | 8,756 | 9,056 | 71.3% |
| 2026-06-29 | 36 | 5,396 | 5,432 | 93.7% |
| 2026-06-22 | 0 | 1,964 | 1,964 | 61.4% |
| 2026-06-15 | 0 | 396 | 396 | 66.0% |
| 2026-06-08 | 344 | 817 | 1,161 | 68.3% |
| 2026-06-01 | 22 | 275 | 297 | 33.0% |
| 2026-05-25 | 206 | 1,978 | 2,184 | 13.7% |
| 2026-05-18 | 235 | 2,107 | 2,342 | 71.0% |
| 2026-05-11 | 0 | 725 | 725 | 17.7% |
| 2026-05-04 | 100 | 984 | 1,084 | 18.4% |
| 2026-04-27 | 13,250 | 1,478 | 14,728 | 64.3% |
| 2026-04-20 | 200 | 2,675 | 2,875 | 35.1% |
| 2026-04-13 | 13,874 | 25,252 | 39,126 | 71.8% |
| 2026-04-06 | 0 | 3,467 | 3,467 | 48.2% |
| 2026-03-30 | 200 | 2,443 | 2,643 | 69.6% |
| 2026-03-23 | 382 | 2,082 | 2,464 | 57.3% |
| 2026-03-16 | 500 | 6,843 | 7,343 | 54.4% |
| 2026-03-09 | 131 | 3,074 | 3,205 | 38.6% |
| 2026-03-02 | 3,840 | 9,931 | 13,771 | 26.7% |
| 2026-02-23 | 276 | 2,247 | 2,523 | 42.0% |
| 2026-02-16 | 700 | 7,694 | 8,394 | 60.8% |
| 2026-02-09 | 4 | 6,042 | 6,046 | 65.0% |
| 2026-02-02 | 2,742 | 18,216 | 20,958 | 58.4% |
| 2026-01-26 | 3,770 | 6,450 | 10,220 | 65.5% |
| 2026-01-19 | 629 | 7,085 | 7,714 | 80.4% |
Showing 1–28 of 28 weeks